Location: Long Island Community Building
(39.9491°N, 99.5338°W)
Time: 06:54:36
(UTC+00:00)

Okean 1-7 - Pass Details

Date: 06 December 2019
Orbit: 591 x 619 km, 82.5° (Epoch: 20 January)

Event Time Altitude Azimuth Distance (km) Brightness Sun altitude
Rises 12:20:44 0° 353° (N) 2,903 6.3 -15.7°
Reaches altitude 10° 12:22:58 10° 354° (N) 1,993 5.4 -15.3°
Maximum altitude 12:27:23 82° 82° (E) 630 3.1 -14.5°
Drops below altitude 10° 12:31:46 10° 171° (S) 1,973 6.0 -13.7°
Sets 12:33:59 0° 172° (S) 2,871 6.9 -13.3°
